TheGetRank SiteMap Page 1868
Home 1818 1819 1820 1821 1822 1823 1824 1825 1826 1827 1828 1829 1830 1831 1832 1833 1834 1835 1836 1837 1838 1839 1840 1841 1842 1843 1844 1845 1846 1847 1848 1849 1850 1851 1852 1853 1854 1855 1856 1857 1858 1859 1860 1861 1862 1863 1864 1865 1866 1867 1868 1869 1870 1871 1872 1873 1874 1875 1876 1877 1878 1879 1880 1881 1882 1883 1884 1885 1886 1887 1888 1889 1890 1891 1892 1893 1894 1895 1896 1897 1898 1899 1900 1901 1902 1903 1904 1905 1906 1907 1908 1909 1910 1911 1912 1913 1914 1915 1916 1917 1918
S.NO. Website Pagerank Alexa Rank Last Updated
1867000 skar.eu 0 No Rank 2011-08-17 06:21:13
1867001 skaters.lt 4 No Rank 2011-08-17 06:21:13
1867002 skarby24.pl 2 No Rank 2011-08-17 06:21:14
1867003 akitarescuewny.com 4 9043193 2011-08-17 06:21:15
1867004 sba7o.net 0 28492106 2011-08-17 06:21:15
1867005 skarpur.is 6 No Rank 2011-08-17 06:21:19
1867006 skc.com 3 13042921 2011-08-17 06:21:20
1867007 skazu.info 0 No Rank 2011-08-17 06:21:24
1867008 skcsra.org 3 No Rank 2011-08-17 06:21:26
1867009 seo-b.com 3 No Rank 2011-08-17 06:21:26
1867010 skcc.com.au 4 6872884 2011-08-17 06:21:27
1867011 skatingsuppliersassoc.org 3 11193626 2011-08-17 06:21:32
1867012 skcmsc.com 0 20402943 2011-08-17 06:21:33
1867013 skbtk.com 2 No Rank 2011-08-17 06:21:34
1867014 skec.co.kr 6 394191 2011-08-17 06:21:36
1867015 skeefmail.com 0 7457727 2011-08-17 06:21:39
1867016 tcrpc.org 5 7970635 2011-08-17 06:21:41
1867017 skatewest.com 3 No Rank 2011-08-17 06:21:41
1867018 skcorp.com 7 20699238 2011-09-09 23:53:22
1867019 skatt.bt.no 5 9282 2011-08-17 06:21:45
1867020 wfchaoran.com 1 532724 2011-08-17 06:21:46
1867021 seonet.cl 4 6200166 2011-08-17 06:21:46
1867022 skatinginbc.com 4 7178091 2011-08-17 06:21:50
1867023 skelbiam.lt 3 4032053 2011-08-17 06:21:51
1867024 skawina.top-ogloszenia.net 1 122338 2011-09-12 12:47:21
1867025 skdeinze.com 3 2378145 2011-08-17 06:21:53
1867026 skeysource.com 4 No Rank 2011-08-17 06:21:59
1867027 sketchup4architect.com 2 306244 2011-08-17 06:22:02
1867028 skep.com 2 10998130 2011-08-17 06:22:03
1867029 skfarek.unl.pl 0 1200705 2011-08-17 06:22:04
1867030 sjrugby.org 0 24519490 2011-08-17 06:22:04
1867031 skf100.org 7 No Rank 2011-09-11 00:20:34
1867032 sajir.org 0 27926333 2011-09-18 12:52:03
1867033 skerrys.ie 4 10595749 2011-08-17 06:22:14
1867034 skfwc.com 4 No Rank 2011-08-17 06:22:15
1867035 skifox.ru 2 No Rank 2011-08-17 06:22:16
1867036 skfindia.com 5 No Rank 2011-08-17 06:22:18
1867037 sketchup.google.fr 6 26 2011-08-17 06:22:18
1867038 avs34.com 3 11340119 2011-08-17 06:22:20
1867039 sf108.com 5 87490 2011-08-17 06:22:22
1867040 skhose.com 2 No Rank 2011-08-17 06:22:22
1867041 skhu.ac.kr 5 2455480 2011-08-17 06:22:23
1867042 skforlee.com 4 3819028 2011-08-17 06:22:23
1867043 skhrf.com 3 5986561 2011-08-17 06:22:24
1867044 sevaa.com 3 12408134 2011-08-17 06:22:25
1867045 skf.be 3 No Rank 2011-08-17 06:22:28
1867046 skessuhorn.is 5 3614005 2011-08-17 06:22:29
1867047 cttsc.com 5 2343187 2011-08-17 06:22:30
1867048 ski.be 4 No Rank 2011-09-19 15:09:16
1867049 ski-in.com 2 No Rank 2011-08-17 06:22:38
1867050 skiclub.de 0 No Rank 2011-09-19 19:08:11
1867051 skicedarsprings.com 3 26987172 2011-08-17 06:22:43
1867052 ski-bigbear.com 4 4565464 2011-08-17 06:22:43
1867053 skican.com 4 7460154 2011-08-17 06:22:48
1867054 skid.com 0 No Rank 2011-08-17 06:22:51
1867055 skidsfan.homestead.com 1 No Rank 2011-08-17 06:22:52
1867056 skiclub.com 3 No Rank 2011-08-17 06:22:53
1867057 skibittersweet.com 4 6389194 2011-08-17 06:22:56
1867058 ski-taj.org 4 No Rank 2011-08-17 06:22:57
1867059 skibadee.com 2 No Rank 2011-08-17 06:22:59
1867060 blogfun.net 0 No Rank 2011-08-17 06:23:02
1867061 zhgjr.com 0 No Rank 2011-09-12 14:46:55
1867062 sestra.sk 2 2796319 2011-08-17 06:23:10
1867063 skijanje.hr 4 1011495 2011-08-17 06:23:11
1867064 skilledcare.com 2 955639 2011-08-17 06:23:13
1867065 skiesofcroda.com 2 19099434 2011-08-17 06:23:13
1867066 skilasvegas.com 4 1717702 2011-08-17 06:23:16
1867067 skiffmed.com 4 8738556 2011-08-17 06:23:17
1867068 senav.net 3 510395 2011-08-17 06:23:20
1867069 skiingmag.com 5 No Rank 2011-08-17 06:23:25
1867070 skijoring.com 3 24673097 2011-08-17 06:23:27
1867071 difaem.de 5 6373695 2011-08-17 06:23:28
1867072 skillings.com 3 No Rank 2011-08-17 06:23:30
1867073 skiing.ru 4 3178607 2011-08-17 06:23:31
1867074 skillful.biz 0 No Rank 2011-08-17 06:23:32
1867075 skierniewice.top-ogloszenia.com 0 570564 2011-08-17 06:23:32
1867076 sgma.info 4 1250051 2011-08-17 06:23:32
1867077 imn.ac.cr 7 470893 2011-08-17 06:23:37
1867078 skiller.virtualmz.com 0 No Rank 2011-08-17 06:23:40
1867079 skiinfo.it 5 239210 2011-08-17 06:23:43
1867080 skilken.com 3 No Rank 2011-08-17 06:23:44
1867081 skilfulgirls.com 0 No Rank 2011-08-17 06:23:45
1867082 skilldialogue.com 0 2282560 2011-09-19 16:24:54
1867083 sentor.cc 1 No Rank 2011-08-17 06:23:51
1867084 skimadriver.com 4 6715189 2011-08-17 06:23:51
1867085 skinandhair.net 0 No Rank 2011-08-17 06:23:52
1867086 shawg.com 1 No Rank 2011-08-17 06:23:53
1867087 ecpsa.com 0 No Rank 2011-08-17 06:23:54
1867088 skimzone.jp 4 No Rank 2011-08-17 06:23:55
1867089 skillsthatclick.com 0 No Rank 2011-09-10 22:00:36
1867090 skin-health.org 0 No Rank 2011-08-17 06:23:58
1867091 skin-care-secrets.info 0 No Rank 2011-08-17 06:24:04
1867092 anapont.eu 3 2233648 2011-08-17 06:24:05
1867093 skinanapothecary.com 2 No Rank 2011-08-17 06:24:06
1867094 skin-disorders.info 0 18574626 2011-08-17 06:24:07
1867095 skillweb.it 1 No Rank 2011-08-17 06:24:11
1867096 skillsongs.net 3 76486 2011-08-17 06:24:12
1867097 skinnertransfer.com 2 22507241 2011-08-17 06:24:20
1867098 skinmedicaaesthetics.com 0 No Rank 2011-08-17 06:24:20
1867099 angus7retirement.com 0 No Rank 2011-08-17 06:24:21
1867100 sssim.com 4 7429755 2011-08-17 06:24:21
1867101 forum.teknorita.com 0 28093288 2011-08-17 06:24:28
1867102 skincare.jp 4 1333770 2011-08-17 06:24:29
1867103 skindelicious.net 0 No Rank 2011-08-17 06:24:31
1867104 skincarebuyersguide.com 0 20904317 2011-08-17 06:24:35
1867105 skinerrors.blogspot.com 0 No Rank 2011-08-17 06:24:45
1867106 skinnables.org 3 29568406 2011-08-17 06:24:49
1867107 vulay.com 1 84122 2011-08-17 06:24:50
1867108 skip.tm.fr 4 No Rank 2011-08-17 06:24:56
1867109 skintreatment.in 0 No Rank 2011-08-17 06:24:59
1867110 skintagremover.com 0 19779814 2011-09-17 19:32:49
1867111 colin755.cn.alibaba.com 0 70 2011-08-17 06:25:00
1867112 skipa.com 4 2503383 2011-08-17 06:25:04
1867113 skinnyteddybear.com 1 No Rank 2011-08-17 06:25:06
1867114 shattered.utulek-kocky.eu 0 No Rank 2011-08-17 06:25:06
1867115 skint.net 4 No Rank 2011-08-17 06:25:08
1867116 halifelikoyu.com 0 8370911 2011-08-17 06:25:11
1867117 skinnynews.net 0 No Rank 2011-08-17 06:25:14
1867118 skip.fastspace.biz 0 No Rank 2011-08-17 06:25:15
1867119 skipall.com 0 4775076 2011-08-17 06:25:15
1867120 scons.org 6 711118 2011-08-17 06:25:17
1867121 skip.de 6 10975878 2011-08-17 06:25:18
1867122 skix.com 0 No Rank 2011-08-17 06:25:24
1867123 skipskipskip.co.jp 4 2731429 2011-08-17 06:25:26
1867124 deanrblack.com 0 2875119 2011-08-17 06:25:32
1867125 sfura.com 2 No Rank 2011-08-17 06:25:35
1867126 skisnoqualmie.com 0 No Rank 2011-08-17 06:25:37
1867127 skiv.com 0 No Rank 2011-08-17 06:25:39
1867128 skivets.dk 5 10586818 2011-08-17 06:25:41
1867129 sbd.co.uk 4 3339809 2011-08-17 06:25:46
1867130 skitx.com 4 3223062 2011-08-17 06:25:49
1867131 skiwalk.com 3 No Rank 2011-08-17 06:25:51
1867132 skits.nl 5 20960076 2011-08-17 06:25:55
1867133 skitrips.net 0 No Rank 2011-09-12 18:12:25
1867134 sklepwgk.pl 3 1022662 2011-08-17 06:26:00
1867135 sklep.monpol.pl 0 No Rank 2011-08-17 06:26:01
1867136 sklavensuche.xxxweb.biz 0 11084157 2011-08-17 06:26:03
1867137 working-in-lexington-fayette.blogspot.com 0 No Rank 2011-08-17 06:26:03
1867138 seeo2.com 5 No Rank 2011-08-17 06:26:05
1867139 egamesfun.net 0 No Rank 2011-08-17 06:26:07
1867140 skmetals.com 1 5826790 2011-08-17 06:26:10
1867141 sklepinternetowy.pl 3 14057 2011-08-17 06:26:15
1867142 sklepdatakom.pl 2 No Rank 2011-08-17 06:26:16
1867143 seven7.us 2 10274668 2011-08-17 06:26:16
1867144 sklep.fbb.pl 3 1063996 2011-08-17 06:26:18
1867145 sexbu.net 0 7357807 2011-08-17 06:26:23
1867146 sklepna5.pl 4 108437 2011-08-17 06:26:24
1867147 skma.se 6 13118800 2011-08-17 06:26:25
1867148 sklarsearch.com 3 6598955 2011-08-17 06:26:26
1867149 sklepamm.win.pl 0 99098 2011-08-17 06:26:26
1867150 modelrailroader.com.au 2 9585043 2011-08-17 06:26:29
1867151 skodovka.pl 3 2180262 2011-08-17 06:26:34
1867152 bebiki.ru 3 502864 2011-08-17 06:26:38
1867153 skoda.com.au 5 769820 2011-08-17 06:26:39
1867154 skolenieexcel.host.sk 0 43279 2011-09-11 08:58:47
1867155 skoda.fi 4 1776765 2011-08-17 06:26:44
1867156 skoda.ru 5 No Rank 2011-08-17 06:26:44
1867157 skoki.top-ogloszenia.net 0 122338 2011-09-10 22:30:49
1867158 news.faire-des-economies.recherche-d-emploi.net 0 No Rank 2011-08-17 06:26:45
1867159 seois.com 0 9820413 2011-08-17 06:26:45
1867160 skofynd.net 1 15947987 2011-08-17 06:26:48
1867161 sknspt.com 3 9370103 2011-08-17 06:26:51
1867162 skon.nl 5 1189916 2011-08-17 06:26:54
1867163 skolernesenergiforum.dk 5 No Rank 2011-08-17 06:26:55
1867164 skoleweb.no 1 No Rank 2011-08-17 06:26:56
1867165 skoda.ro 5 425177 2011-08-17 06:27:00
1867166 skooiz.com 4 2766178 2011-08-17 06:27:02
1867167 skolar.com 5 No Rank 2011-08-17 06:27:06
1867168 skoda.co.uk 5 201347 2011-08-17 06:27:06
1867169 skoda.com.tr 5 328271 2011-09-19 16:23:29
1867170 sgsub.com 4 3586633 2011-08-17 06:27:08
1867171 sktelink.co.kr 0 29938918 2011-08-17 06:27:10
1867172 viralmonopolysuccess.com 0 No Rank 2011-08-17 06:27:11
1867173 sksato.co.jp 3 8360181 2011-08-17 06:27:11
1867174 skrew.com 3 20143277 2011-08-17 06:27:12
1867175 skuc.org 6 6474358 2011-08-17 06:27:14
1867176 altoholicsguild.com 0 16533478 2011-08-17 06:27:14
1867177 sestka.cz 4 11991935 2011-08-17 06:27:16
1867178 cualn.com 3 No Rank 2011-08-17 06:27:17
1867179 skopart.org 4 No Rank 2011-08-17 06:27:17
1867180 sksservices.co.uk 3 1247568 2011-08-17 06:27:21
1867181 skovde.se 5 2222244 2011-08-17 06:27:24
1867182 skrupel.de 2 3728562 2011-08-17 06:27:27
1867183 sksm.pl 2 15195380 2011-08-17 06:27:30
1867184 sktel.ru 2 23865358 2011-08-17 06:27:32
1867185 skos.ch 0 2089910 2011-08-17 06:27:34
1867186 skrattportalen.se 3 3209841 2011-08-17 06:27:37
1867187 skradin.hr 4 5074887 2011-08-17 06:27:41
1867188 skp.se 5 2078177 2011-08-17 06:27:42
1867189 skoovy.com 3 495041 2011-08-17 06:27:43
1867190 skwriter.com 5 4857419 2011-08-17 06:27:44
1867191 skrin.ru 6 299283 2011-08-17 06:27:46
1867192 sky.air.jp 0 No Rank 2011-08-17 06:27:48
1867193 skwyverns.com 5 No Rank 2011-08-17 06:27:50
1867194 skunz.de 3 7740121 2011-08-17 06:27:54
1867195 skulima.de 4 7120493 2011-08-17 06:27:55
1867196 skulenettet.no 0 12725227 2011-08-17 06:27:57
1867197 skullsdirect.co.uk 3 29879257 2011-08-17 06:28:04
1867198 sky678.com 0 No Rank 2011-08-17 06:28:05
1867199 skwk.pl 4 849767 2011-08-17 06:28:06
1867200 skvele-hry.cz 2 2140881 2011-08-17 06:28:15
1867201 sky518.com 1 No Rank 2011-08-17 06:28:17
1867202 sexjoy.tv 1 No Rank 2011-08-17 06:28:18
1867203 sky360.net 0 No Rank 2011-09-18 02:38:22
1867204 xxlbag.de 0 No Rank 2011-08-17 06:28:20
1867205 serank.ru 3 496237 2011-08-17 06:28:23
1867206 skyding.com 0 No Rank 2011-09-12 14:29:04
1867207 sakhi.com 5 1935162 2011-08-17 06:28:26
1867208 sky.tv.br 0 2209106 2011-09-18 08:30:32
1867209 skybreakers.nl 3 15065255 2011-08-17 06:28:29
1867210 twacs.com 4 No Rank 2011-08-17 06:28:29
1867211 dcota.com 4 4629486 2011-08-17 06:28:32
1867212 thedynamicsguy.com 0 No Rank 2011-08-17 06:28:33
1867213 ranqifadian.com 1 2504523 2011-08-17 06:28:35
1867214 skydiveql.com 2 No Rank 2011-08-17 06:28:37
1867215 skydir.ca 1 1309805 2011-08-17 06:28:39
1867216 ehowpremium.com 0 No Rank 2011-08-17 06:28:42
1867217 skydive.de 3 1139511 2011-08-17 06:28:42
1867218 skycha.com 4 15146005 2011-08-17 06:28:42
1867219 skycars.com 3 4265207 2011-08-17 06:28:43
1867220 skyfire.ca 0 No Rank 2011-08-17 06:28:45
1867221 skybrasil.com 1 No Rank 2011-08-17 06:28:49
1867222 skyangel.chinawolf.com 0 17125221 2011-09-12 11:38:32
1867223 skyehospitality.com 2 No Rank 2011-08-17 06:28:55
1867224 skylan.net 0 No Rank 2011-09-10 01:39:18
1867225 skyland.com 3 10993195 2011-08-17 06:28:58
1867226 skyhost.ru 4 1683321 2011-08-17 06:28:58
1867227 skylinespeedway.com 2 No Rank 2011-08-17 06:29:04
1867228 skyecho.com 0 1179243 2011-08-17 06:29:04
1867229 seome.com 4 942761 2011-08-17 06:29:05
1867230 skylandscutlery.com 2 1356621 2011-08-17 06:29:09
1867231 serann.ru 4 552553 2011-08-17 06:29:19
1867232 wowtopsecret.info 0 No Rank 2011-08-17 06:29:19
1867233 skyliner.biz 0 No Rank 2011-09-11 23:54:24
1867234 skylarj.stinkdot.org 0 11500454 2011-09-12 22:07:48
1867235 skyjump.com 4 4323503 2011-08-17 06:29:25
1867236 skype-video-call.fyxm.net 1 5060 2011-08-17 06:29:32
1867237 skypointcorp.com 4 No Rank 2011-08-17 06:29:33
1867238 skyscanner.it 6 20543 2011-08-17 06:29:36
1867239 fzdn120.com 0 16654858 2011-08-17 06:29:37
1867240 skyscanner.jp 5 143224 2011-08-17 06:29:47
1867241 skyscanner.pt 5 155283 2011-08-17 06:29:47
1867242 wakaba.nu 1 No Rank 2011-08-17 06:29:47
1867243 skyscanner.pl 6 65688 2011-08-17 06:29:47
1867244 seneco.it 4 2994245 2011-08-17 06:29:49
1867245 skypefone.com.br 0 No Rank 2011-09-19 12:56:59
1867246 dbvnet.de 4 No Rank 2011-08-17 06:29:55
1867247 sex62.org 0 No Rank 2011-08-17 06:29:58
1867248 skynet.ca 2 No Rank 2011-08-17 06:29:59
1867249 akynou.fr 0 7641247 2011-08-17 06:29:59
1867250 skyscanner.es 5 32584 2011-08-17 06:30:01
1867251 skytop.net 0 8392826 2011-08-17 06:30:08
1867252 skywq.com 0 12331138 2011-08-17 06:30:14
1867253 seopan.es 6 5671608 2011-08-17 06:30:18
1867254 skyturn.com 0 No Rank 2011-08-17 06:30:23
1867255 nedab.org 4 No Rank 2011-08-17 06:30:25
1867256 skywords.com 3 6676649 2011-08-17 06:30:29
1867257 skyviews.com 4 1770716 2011-08-17 06:30:31
1867258 skyworkstech.com 5 23018795 2011-08-17 06:30:31
1867259 skywaves.com 2 9614085 2011-08-17 06:30:33
1867260 sdjug.com 5 No Rank 2011-08-17 06:30:36
1867261 sw.gov.pl 5 411681 2011-08-17 06:30:37
1867262 sl2000.info 0 16380756 2011-08-17 06:30:38
1867263 sl-stone.com 0 No Rank 2011-08-17 06:30:39
1867264 slacombe.myshrink.ca 2 9577960 2011-08-17 06:30:40
1867265 sla.gov.sg 6 745783 2011-08-17 06:30:45
1867266 sladp.com 0 No Rank 2011-08-17 06:30:45
1867267 sl.info.bg 0 444091 2011-08-17 06:30:47
1867268 sl8works.com 2 No Rank 2011-08-17 06:30:48
1867269 slaff.net 3 1047580 2011-08-17 06:30:48
1867270 slackiller.com 2 3358644 2011-08-17 06:30:51
1867271 slacknews.com 2 No Rank 2011-08-17 06:30:51
1867272 seo-a.com 3 5700573 2011-08-17 06:30:58
1867273 sl.net 1 No Rank 2011-08-17 06:31:00
1867274 skywell.com 3 No Rank 2011-09-19 15:57:32
1867275 sla-batteries.com 3 No Rank 2011-09-19 00:59:27
1867276 slagerradio.hu 5 3315325 2011-08-17 06:31:06
1867277 sl-f.com 0 No Rank 2011-09-12 14:31:53
1867278 sladco.com 4 24197 2011-08-17 06:31:16
1867279 anetka.cz 3 755315 2011-08-17 06:31:16
1867280 slam.art.pl 4 No Rank 2011-08-17 06:31:20
1867281 poisonseven.ugu.pl 0 48186 2011-08-17 06:31:28
1867282 slando.by 6 76249 2011-08-17 06:31:30
1867283 slapper-alert.co.uk 0 No Rank 2011-08-17 06:31:30
1867284 slatkin.com 3 No Rank 2011-08-17 06:31:30
1867285 controlling-panic-attacks.org 0 15538018 2011-08-17 06:31:32
1867286 slammer.nl 2 325418 2011-08-17 06:31:34
1867287 slaria.com 4 3330539 2011-08-17 06:31:36
1867288 slashdom.com 0 13864981 2011-08-17 06:31:39
1867289 258bt.com 0 No Rank 2011-08-17 06:31:42
1867290 slarkraceengineering.co.uk 2 No Rank 2011-09-11 23:04:54
1867291 sesef.net 4 1968318 2011-08-17 06:31:46
1867292 slash.it 4 30056 2011-08-17 06:31:46
1867293 slazak.pl 0 No Rank 2011-08-17 06:31:48
1867294 slavestate.info 1 No Rank 2011-08-17 06:31:52
1867295 slavefor.com 3 3378192 2011-08-17 06:31:52
1867296 sextvx.pl 2 3493449 2011-08-17 06:31:56
1867297 slawno.top-ogloszenia.com 0 570564 2011-08-17 06:31:56
1867298 slavsila.com 4 1139279 2011-08-17 06:31:57
1867299 boutes.com 3 No Rank 2011-08-17 06:31:58
1867300 slavetube.com 1 No Rank 2011-08-17 06:32:00
1867301 slb.com 7 21698 2011-08-17 06:32:06
1867302 slawno.top-ogloszenia.net 1 122338 2011-09-12 13:33:29
1867303 server.sk 4 208520 2011-08-17 06:32:15
1867304 slbm.ru 3 6458578 2011-08-17 06:32:17
1867305 sleazygays.com 0 No Rank 2011-08-17 06:32:18
1867306 sbaza.net 5 6172161 2011-08-17 06:32:19
1867307 tv2go.com 3 6468271 2011-08-17 06:32:22
1867308 slcenvironmental.com 0 No Rank 2011-08-17 06:32:23
1867309 sld.org.pl 6 577653 2011-08-17 06:32:23
1867310 windows7freedownload.org 2 1529378 2011-08-17 06:32:24
1867311 sleddogsport.com 6 5602736 2011-08-17 06:32:27
1867312 slbox.org 0 8240636 2011-08-17 06:32:27
1867313 seuoo.com 0 No Rank 2011-08-17 06:32:30
1867314 najah.zaghost.com 0 144985 2011-08-17 06:32:30
1867315 scbtc.org 3 No Rank 2011-08-17 06:32:32
1867316 slco.eu 0 No Rank 2011-08-17 06:32:33
1867317 yolie.com 0 No Rank 2011-08-17 06:32:34
1867318 slbs.org.lc 5 4213622 2011-08-17 06:32:37
1867319 slduk.com 3 16737887 2011-08-17 06:32:38
1867320 sleazydram.com 0 19886940 2011-08-17 06:32:50
1867321 sleeman.com 5 2252268 2011-08-17 06:32:51
1867322 sleepdoc.com 3 3090677 2011-08-17 06:32:52
1867323 sgames.ua 4 93228 2011-08-17 06:32:56
1867324 ekaokao.com 2 3729522 2011-08-17 06:32:56
1867325 sleepingsex.com 0 29671833 2011-08-17 06:32:56
1867326 sleepingslut.eu 0 No Rank 2011-08-17 06:32:59
1867327 sleeplessknights.com 2 24046336 2011-09-13 10:53:39
1867328 sfu.ac.at 6 1385257 2011-08-17 06:33:02
1867329 bryarkurd.freeoda.com 0 94478 2011-08-17 06:33:05
1867330 sleepandprofit.com 2 9176579 2011-08-17 06:33:06
1867331 sleepandcomfortproducts.com 2 3459064 2011-08-17 06:33:07
1867332 sleepdeprivationdisorder.com 0 No Rank 2011-08-17 06:33:07
1867333 acjvs.org 4 13951374 2011-09-19 16:37:12
1867334 sleepovercomics.com 4 No Rank 2011-08-17 06:33:11
1867335 sleepapneasymptoms.info 1 7457879 2011-08-17 06:33:14
1867336 vsj.co.uk 5 5068547 2011-08-17 06:33:15
1867337 nornik.ru 6 375805 2011-08-17 06:33:22
1867338 dobri.biz 3 11037322 2011-08-17 06:33:24
1867339 slf.ca 4 8369360 2011-08-17 06:33:28
1867340 slengpung.com 4 8478061 2011-08-17 06:33:28
1867341 slekt.no 0 1268346 2011-08-17 06:33:31
1867342 jader.com 0 20738035 2011-08-17 06:33:31
1867343 sleepyslogfurniture.com 0 No Rank 2011-08-17 06:33:31
1867344 sleggtools.com 2 No Rank 2011-09-12 17:14:49
1867345 sleepwalk-links.co.uk 0 No Rank 2011-08-17 06:33:35
1867346 slf.mobi 0 No Rank 2011-08-17 06:33:37
1867347 sleeptherapy.org 0 No Rank 2011-08-17 06:33:38
1867348 sleepzone.ie 5 2191912 2011-08-17 06:33:44
1867349 sleuth.com 0 11508433 2011-08-17 06:33:45
1867350 kkrjuelich.de 3 22549679 2011-08-17 06:33:56
1867351 dayi-archi.myweb.faire-des-economies.recherche-d-emploi.net 0 No Rank 2011-08-17 06:33:58
1867352 scire.com 4 6675465 2011-08-17 06:33:58
1867353 sleepy.be 4 2046130 2011-08-17 06:34:01
1867354 slegar.com 3 13699680 2011-08-17 06:34:01
1867355 slendertone.tv 0 No Rank 2011-09-12 01:30:36
1867356 sleepwear.com 0 15770915 2011-09-19 17:15:19
1867357 slickpornvids.com 0 2745548 2011-08-17 06:34:20
1867358 mjc.ac.kr 4 No Rank 2011-09-19 16:37:45
1867359 slgafi.org 4 No Rank 2011-08-17 06:34:31
1867360 slhacker.com 0 No Rank 2011-08-17 06:34:32
1867361 slides.games-with-brains.net 3 No Rank 2011-08-17 06:34:36
1867362 forums.disipromosyon.com.tr 0 13077307 2011-09-19 14:02:31
1867363 slickprint.packetizer.com 4 578280 2011-08-17 06:34:39
1867364 slgg.com 4 No Rank 2011-08-17 06:34:39
1867365 slideshows.msn.com 5 11 2011-08-17 06:34:40
1867366 slfaloan.com 5 10261295 2011-08-17 06:34:45
1867367 zeniea.com 1 29511740 2011-08-17 06:34:51
1867368 slil.com 3 28363808 2011-08-17 06:34:56
1867369 foxwar.com 1 No Rank 2011-08-17 06:34:58
1867370 slimntaller.com 0 No Rank 2011-08-17 06:34:59
1867371 axrak.com 0 No Rank 2011-08-17 06:34:59
1867372 slimhealth-uk.com 0 26843044 2011-09-13 13:09:17
1867373 slimebox.com 0 No Rank 2011-08-17 06:35:08
1867374 slimfastproducts.org 0 No Rank 2011-08-17 06:35:10
1867375 slightlymordant.com 2 3293620 2011-08-17 06:35:10
1867376 sligoweb.com 5 2664429 2011-08-17 06:35:12
1867377 slimcentral.info 0 No Rank 2011-08-17 06:35:12
1867378 sligh.com 4 2120448 2011-08-17 06:35:15
1867379 sliptongue.com 4 7865111 2011-08-17 06:35:15
1867380 gangstatime.be 0 13996908 2011-08-17 06:35:15
1867381 slipandfallattorneys.net 0 No Rank 2011-08-17 06:35:18
1867382 sliven.info 1 16403796 2011-09-10 03:00:05
1867383 slimbodycoach.com 0 16947679 2011-09-18 06:29:30
1867384 slinkgirlz.com 0 No Rank 2011-08-17 06:35:27
1867385 sljobsandmoney.blogspot.com 0 29318320 2011-08-17 06:35:29
1867386 slipstreamind.com 3 23209430 2011-08-17 06:35:30
1867387 slingmax.com 4 11924405 2011-08-17 06:35:31
1867388 slimtrex.com 0 No Rank 2011-09-12 11:41:46
1867389 slmj.com 0 No Rank 2011-09-12 16:39:36
1867390 tunneltek.host56.com 0 53795 2011-08-17 06:35:43
1867391 slns.org 5 No Rank 2011-09-18 04:18:31
1867392 slonep.net 6 410144 2011-08-17 06:35:44
1867393 slithercunt.com 0 No Rank 2011-09-15 00:14:28
1867394 riservadelladuchessa.it 3 2232604 2011-08-17 06:35:58
1867395 slodivx.net 2 No Rank 2011-08-17 06:35:59
1867396 sloanslake.com 0 No Rank 2011-09-18 12:57:10
1867397 slm.siteblast.com 0 3485941 2011-08-17 06:36:01
1867398 sloans64-72.com 2 8636632 2011-08-17 06:36:07
1867399 sloaneboy.com 1 No Rank 2011-08-17 06:36:07
1867400 slotvegas.com 2 17072167 2011-08-17 06:36:08
1867401 slotsonfire.com 2 1780471 2011-08-17 06:36:12
1867402 slothgames.com 0 No Rank 2011-08-17 06:36:13
1867403 slotbook.com 2 No Rank 2011-09-19 18:31:50
1867404 slotmoney.ru 0 No Rank 2011-08-17 06:36:17
1867405 slotusa.com 1 No Rank 2011-08-17 06:36:19
1867406 slotsroyale.com 4 No Rank 2011-08-17 06:36:20
1867407 mano1.p2h.info 0 20516 2011-09-18 11:17:17
1867408 slovakman.sk 2 12409414 2011-08-17 06:36:28
1867409 slosson.com 4 26684936 2011-08-17 06:36:30
1867410 slotdepot.com 3 11537769 2011-08-17 06:36:31
1867411 sloanentrepreneurs.org 0 No Rank 2011-09-12 12:19:00
1867412 slotsdata.com 3 No Rank 2011-08-17 06:36:31
1867413 sloters.tv 3 8007935 2011-08-17 06:36:36
1867414 slotier.com 0 8807847 2011-08-17 06:36:39
1867415 slovinsko.eu 0 No Rank 2011-08-17 06:36:49
1867416 slposta.sk 5 6966328 2011-08-17 06:36:50
1867417 slp-med.com 3 No Rank 2011-09-18 05:24:47
1867418 slovenija-veselic.blogspot.com 0 No Rank 2011-08-17 06:36:54
1867419 slowbos.com 0 170032 2011-08-17 06:36:57
1867420 slovart.cz 5 2867289 2011-08-17 06:37:09
1867421 slpl.com 0 8779564 2011-08-17 06:37:11
1867422 shattered.russia.fr 0 2375837 2011-08-17 06:37:11
1867423 slovnik.nettown.cz 5 No Rank 2011-08-17 06:37:16
1867424 slowcode.com 0 28316508 2011-08-17 06:37:16
1867425 annettebraymond.catalystarts.org 0 3346444 2011-08-17 06:37:19
1867426 slumvee.com 1 24286066 2011-08-17 06:37:19
1867427 slupca.top-ogloszenia.com 0 570564 2011-08-17 06:37:24
1867428 slurrypavers.com 3 No Rank 2011-08-17 06:37:25
1867429 forum.carsimugla.com 0 No Rank 2011-08-17 06:37:27
1867430 slsherriff.org 0 No Rank 2011-09-19 12:12:18
1867431 sltidc.lk 5 3202622 2011-09-18 07:45:57
1867432 slumberinc.com 0 No Rank 2011-08-17 06:37:35
1867433 sluchaj.net 0 22041440 2011-08-17 06:37:36
1867434 sltrix.com 2 3105645 2011-08-17 06:37:42
1867435 slusser.net 1 No Rank 2011-08-17 06:37:43
1867436 slutquest.com 0 No Rank 2011-08-17 06:37:45
1867437 slutfest.com 2 11153322 2011-08-17 06:37:46
1867438 sap-digital.net 1 29558031 2011-08-17 06:37:49
1867439 slutbangers.biz 0 No Rank 2011-08-17 06:37:49
1867440 slutnet.com 0 No Rank 2011-08-17 06:37:59
1867441 slutgirlcomix.com 0 No Rank 2011-08-17 06:38:00
1867442 slutpit.com 0 No Rank 2011-08-17 06:38:00
1867443 slutauditions.com 0 No Rank 2011-08-17 06:38:01
1867444 slutgirlfriends.com 0 9528937 2011-08-17 06:38:13
1867445 slut-teen.net 1 No Rank 2011-08-17 06:38:13
1867446 sluttyteenfun.com 0 No Rank 2011-08-17 06:38:15
1867447 slutwifevideo.com 0 No Rank 2011-08-17 06:38:21
1867448 slw.com.cn 2 11345811 2011-08-17 06:38:23
1867449 sluttylesbos.com 0 No Rank 2011-08-17 06:38:25
1867450 glencarrycourt.com 0 No Rank 2011-08-17 06:38:34
1867451 slutyoung.com 0 29514587 2011-08-17 06:38:38
1867452 slutty-chubby.com 0 No Rank 2011-08-17 06:38:39
1867453 slutwifewhores.com 0 No Rank 2011-08-17 06:38:39
1867454 sluttynet.com 0 No Rank 2011-08-17 06:38:40
1867455 sluttyprincess.com 0 No Rank 2011-08-17 06:38:40
1867456 slyip.com 0 150002 2011-09-14 20:55:58
1867457 sluttytube.com 3 6363615 2011-08-17 06:38:43
1867458 smabugil.info 0 6516704 2011-08-17 06:38:44
1867459 sm-town.com 0 No Rank 2011-08-17 06:38:50
1867460 sm.ac.th 4 16301293 2011-09-12 11:58:44
1867461 sma-e.com 3 30135173 2011-08-17 06:38:54
1867462 sma.co.jp 5 221655 2011-08-17 06:38:58
1867463 sm2.co.jp 3 307045 2011-08-17 06:38:58
1867464 sma-inc.com 5 No Rank 2011-08-17 06:39:02
1867465 smacu.org 2 6374490 2011-08-17 06:39:05
1867466 sma.to 3 5268515 2011-08-17 06:39:09
1867467 slz.sk 4 3524408 2011-08-17 06:39:10
1867468 slutuniversity.com 0 8155803 2011-09-10 11:01:11
1867469 slyva.net 0 No Rank 2011-09-12 15:29:03
1867470 smaaa.org 5 12114466 2011-08-17 06:39:17
1867471 edmontonmovingexperts.com 1 9876656 2011-08-17 06:39:17
1867472 smallbusinesscopywriter.com 3 292923 2011-08-17 06:39:22
1867473 smagolfart.com 2 No Rank 2011-08-17 06:39:27
1867474 smallbreasted-girls.com 1 No Rank 2011-08-17 06:39:27
1867475 smallbusinesssuccessontap.eventbrite.com 0 950 2011-08-17 06:39:28
1867476 smak.us 0 No Rank 2011-09-12 15:50:24
1867477 smallbusiness-crmsoftware.net 0 No Rank 2011-08-17 06:39:36
1867478 small-business-consultants.net 2 823986 2011-08-17 06:39:36
1867479 12a-97.onclick.vn 0 No Rank 2011-08-17 06:39:37
1867480 smallbreastedamateurs.com 0 No Rank 2011-08-17 06:39:37
1867481 smallb2c.com 1 1889522 2011-08-17 06:39:41
1867482 small-business-marketing-advice.com 3 18458967 2011-08-17 06:39:46
1867483 smallandeleganthotels.com 3 2681915 2011-08-17 06:39:48
1867484 ihavebeenscammed.com 0 No Rank 2011-08-17 06:39:49
1867485 smages.com 2 394972 2011-08-17 06:39:50
1867486 smallbosspvc.com 4 5856147 2011-08-17 06:39:53
1867487 smallframes.com 0 14397473 2011-08-17 06:39:55
1867488 smallplanethealth.com 0 No Rank 2011-08-17 06:39:58
1867489 smallgroupministry.net 4 7266562 2011-08-17 06:39:58
1867490 smallrugs.org 0 No Rank 2011-08-17 06:39:58
1867491 smallgroups.tv 0 No Rank 2011-08-17 06:40:00
1867492 smallbusiness.lk 0 No Rank 2011-09-19 18:17:32
1867493 smallcars.us 1 No Rank 2011-09-11 18:57:23
1867494 smallcelllungcancer.bestblogstuff.com 0 No Rank 2011-08-17 06:40:06
1867495 smallhead.net 0 No Rank 2011-09-12 15:32:57
1867496 bmwfirst.com 1 3260897 2011-08-17 06:40:26
1867497 smalto.eu 0 No Rank 2011-08-17 06:40:28
1867498 smaor.com 3 No Rank 2011-08-17 06:40:33
1867499 smalltools.co.uk 0 No Rank 2011-08-17 06:40:49
1867500 smap.in 0 25905650 2011-08-17 06:40:49
1867501 smar.com 4 1888938 2011-08-17 06:40:49
1867502 smart-office.com 0 No Rank 2011-08-17 06:41:01
1867503 smart-magnet.com 2 20544484 2011-08-17 06:41:02
1867504 smartair.com 3 No Rank 2011-08-17 06:41:03
1867505 pinoytt.com 0 No Rank 2011-08-17 06:41:06
1867506 smart.open-publisher.net 0 18674343 2011-08-17 06:41:10
1867507 smart.atw.hu 0 22582 2011-08-17 06:41:14
1867508 smartboydesigns.com 0 49838 2011-08-17 06:41:18
1867509 smallvoices.net 2 18045151 2011-09-17 23:19:57
1867510 smart10.com 3 5265233 2011-09-19 10:09:37
1867511 smart-tax.biz 0 No Rank 2011-08-17 06:41:20
1867512 smana.com 0 2475987 2011-09-19 19:49:39
1867513 smartandsafe.com 3 No Rank 2011-08-17 06:41:23
1867514 smartbrief.net 0 No Rank 2011-08-17 06:41:27
1867515 smartbizz4u-esmile.blogspot.com 0 14401353 2011-08-17 06:41:29
1867516 smartarea.com 1 12173089 2011-08-17 06:41:29
1867517 smartcarplaza.com 0 No Rank 2011-08-17 06:41:31
1867518 smart-popcorn.com 3 11798884 2011-08-17 06:41:31
1867519 smart-max.de 2 2007838 2011-08-17 06:41:32
1867520 smartconversion.com 3 1796545 2011-08-17 06:41:36
1867521 smartconsumerbanking.com 0 27753756 2011-08-17 06:41:36
1867522 smarters.com 0 9955699 2011-09-17 20:52:52
1867523 smartdrivingschool.org 1 No Rank 2011-08-17 06:41:44
1867524 smartec.nl 3 14020583 2011-08-17 06:41:45
1867525 smartelf.com 1 7776281 2011-08-17 06:41:51
1867526 smarthouse.de 5 870867 2011-08-17 06:42:12
1867527 smarterstats1.webcontrolcenter.com 4 35951 2011-08-17 06:42:14
1867528 smartex.com 4 8643608 2011-08-17 06:42:16
1867529 smartgirl.dk 4 182884 2011-08-17 06:42:19
1867530 mo-x.de 0 No Rank 2011-08-17 06:42:22
1867531 smarti.gr 4 No Rank 2011-09-19 17:51:51
1867532 smarterstats.com 8 22377 2011-08-17 06:42:23
1867533 smartcarbuying.com 0 No Rank 2011-09-12 01:37:38
1867534 makemoneyquickly.info 0 17324138 2011-08-17 06:42:30
1867535 easyforextipsguide.com 0 No Rank 2011-08-17 06:42:32
1867536 smarthomebusiness.info 0 No Rank 2011-08-17 06:42:34
1867537 smartpages.gr 3 22965487 2011-08-17 06:42:44
1867538 smartof.ru 1 989638 2011-08-17 06:42:44
1867539 smarteam.com 6 No Rank 2011-09-10 02:08:21
1867540 smartstage.com 2 8512314 2011-08-17 06:42:49
1867541 smartpethealth.com 3 17224273 2011-08-17 06:42:55
1867542 smartpools.net 0 No Rank 2011-08-17 06:42:55
1867543 smartsharp.com 0 No Rank 2011-08-17 06:43:01
1867544 smartsoft.org 0 No Rank 2011-09-14 12:44:55
1867545 smarts.com 5 No Rank 2011-08-17 06:43:05
1867546 smartwebfilter.com 0 13894841 2011-08-17 06:43:11
1867547 smashmyxbox.com 3 No Rank 2011-08-17 06:43:11
1867548 smashwrestling.com 2 9906961 2011-08-17 06:43:13
1867549 nudistresortsonline.com 0 15563794 2011-08-17 06:43:14
1867550 smashcinema.com 0 No Rank 2011-08-17 06:43:17
1867551 givemebeats014.wikispaces.com 0 1976 2011-08-17 06:43:24
1867552 smartsurf.org 0 No Rank 2011-08-17 06:43:25
1867553 smartwar.net 2 No Rank 2011-08-17 06:43:25
1867554 smarty.ro 4 563251 2011-08-17 06:43:31
1867555 smashing.com 4 1991507 2011-08-17 06:43:34
1867556 smasingmagazine.com 0 10557314 2011-09-14 11:58:50
1867557 smashmethod.deviantart.com 4 122 2011-08-17 06:43:38
1867558 winter.skikot.be 5 3998080 2011-08-17 06:43:40
1867559 smbb.com 4 5028219 2011-08-17 06:43:40
1867560 smccv.ch 5 6909149 2011-08-17 06:43:51
1867561 smc.eu 4 292275 2011-08-17 06:43:56
1867562 smcta.com 6 No Rank 2011-08-17 06:43:56
1867563 smcycles.com 3 11164117 2011-08-17 06:43:58
1867564 smcat.com 0 No Rank 2011-08-17 06:44:00
1867565 smc.sd 3 156506 2011-08-17 06:44:01
1867566 smcfa.org 4 7548014 2011-08-17 06:44:02
1867567 smcracing.com 0 No Rank 2011-08-17 06:44:06
1867568 belgique-offshore.com 0 No Rank 2011-08-17 06:44:11
1867569 smccd.edu 5 227263 2011-08-17 06:44:13
1867570 smcpas.com 3 No Rank 2011-08-17 06:44:14
1867571 smaxs.de 0 25641351 2011-08-17 06:44:14
1867572 smfcu.org 2 8133177 2011-08-17 06:44:16
1867573 promomovilnetven09.cyclelogic.com 0 567125 2011-08-17 06:44:18
1867574 smeared-sites.com 0 No Rank 2011-08-17 06:44:23
1867575 smete.org 0 16163162 2011-08-17 06:44:27
1867576 smex.ru 3 4153620 2011-08-17 06:44:28
1867577 smfb.org 5 No Rank 2011-08-17 06:44:30
1867578 smescripts.com 3 No Rank 2011-08-17 06:44:33
1867579 smerc.com 4 5513389 2011-08-17 06:44:36
1867580 smestaj.info 3 678482 2011-08-17 06:44:39
1867581 smearfactor.com 0 No Rank 2011-08-17 06:44:41
1867582 smecq.gov.cn 6 1085482 2011-08-17 06:44:45
1867583 smed.com 0 4685485 2011-08-17 06:44:49
1867584 smff.com 3 10976068 2011-09-12 19:45:19
1867585 smelltherich.com 0 No Rank 2011-08-17 06:44:51
1867586 smfm.org 6 4799321 2011-08-17 06:44:51
1867587 smenat.com 0 No Rank 2011-08-17 06:44:52
1867588 smijeh.net 3 15319721 2011-08-17 06:44:53
1867589 fatrejects.com 0 No Rank 2011-08-17 06:45:00
1867590 smileboobs.com 0 No Rank 2011-08-17 06:45:02
1867591 smilebox.biz 0 10617837 2011-08-17 06:45:02
1867592 smilebox.net 0 No Rank 2011-08-17 06:45:07
1867593 smile1.jp 2 No Rank 2011-08-17 06:45:08
1867594 smidtje.eu 3 No Rank 2011-08-17 06:45:11
1867595 smieszne.pl 4 1656377 2011-08-17 06:45:12
1867596 smilecenterdental.com 0 13637353 2011-08-17 06:45:15
1867597 smilebox.co.uk 0 No Rank 2011-08-17 06:45:22
1867598 smilebox.us 0 No Rank 2011-08-17 06:45:24
1867599 smile.ie 2 No Rank 2011-08-17 06:45:24
1867600 smithedge.com 0 No Rank 2011-08-17 06:45:28
1867601 smithsonianmag.si.edu 0 6779 2011-08-17 06:45:31
1867602 smileyforbabies.com 0 No Rank 2011-09-13 20:16:32
1867603 mycostumes.ie 0 No Rank 2011-08-17 06:45:33
1867604 g1.ro 0 18647519 2011-08-17 06:45:40
1867605 smithfirstteam.freehomepage.com 0 201750 2011-08-17 06:45:41
1867606 smithmountainlakehomes.com 0 8307993 2011-08-17 06:45:42
1867607 smithsonianstudytours.org 3 No Rank 2011-09-19 14:52:45
1867608 smiley-channel.de 4 3143791 2011-08-17 06:45:47
1867609 smithbux.com 1 15015709 2011-08-17 06:45:49
1867610 smith-hughes.com 4 21186659 2011-08-17 06:45:51
1867611 smiley-paradies.de 2 5068293 2011-08-17 06:45:54
1867612 smocks.us 0 No Rank 2011-09-12 17:38:52
1867613 smhec.org 5 No Rank 2011-09-18 03:40:07
1867614 smitheranto.co.tv 0 No Rank 2011-08-17 06:46:02
1867615 smmms.com 2 No Rank 2011-08-17 06:46:05
1867616 smodyssey.com 4 17602192 2011-08-17 06:46:06
1867617 smithonvoip.com 5 1428890 2011-08-17 06:46:07
1867618 smkj.net 1 No Rank 2011-09-11 16:30:42
1867619 smm.net.my 3 2564168 2011-08-17 06:46:17
1867620 smitspits.net 0 No Rank 2011-08-17 06:46:19
1867621 smnk.ru 0 No Rank 2011-08-17 06:46:23
1867622 smo.es 3 3711538 2011-08-17 06:46:23
1867623 smk.dk 0 791549 2011-08-17 06:46:24
1867624 smiusa.com 3 13709748 2011-08-17 06:46:24
1867625 smlbx.com 0 No Rank 2011-08-17 06:46:24
1867626 smkj.fi 5 2474608 2011-08-17 06:46:32
1867627 agusgame.blogspot.com 0 No Rank 2011-08-17 06:46:34
1867628 smocks.biz 0 No Rank 2011-08-17 06:46:36
1867629 smlcm.org 1 No Rank 2011-08-17 06:46:38
1867630 smokerstees.com 2 12437043 2011-08-17 06:46:43
1867631 smokescreen.org 3 10945455 2011-09-11 08:10:10
1867632 smokinfiles.com 1 No Rank 2011-08-17 06:46:49
1867633 smogtech.biz 0 No Rank 2011-08-17 06:46:53
1867634 recipesupersource.com 3 1184687 2011-08-17 06:46:54
1867635 smog.cjb.net 0 14100 2011-08-17 06:46:55
1867636 smokers.alongcamea.moo.vu 0 No Rank 2011-08-17 06:46:56
1867637 smokiestraveler.com 1 No Rank 2011-08-17 06:46:57
1867638 sci.ru 0 No Rank 2011-09-11 18:39:30
1867639 smoothjazz977.com 1 16836395 2011-08-17 06:47:12
1867640 smt.jp 5 1071588 2011-09-10 21:31:19
1867641 news.pecalculator.ro.sg 0 No Rank 2011-08-17 06:47:14
1867642 zachytka.kvalitne.cz 0 81873 2011-08-17 06:47:18
1867643 smotr.ru 5 1343172 2011-08-17 06:47:20
1867644 smoothledlights.com 2 3040435 2011-08-17 06:47:20
1867645 smolbank.ru 5 10842070 2011-08-17 06:47:21
1867646 ytv.ca 6 63518 2011-08-17 06:47:21
1867647 smoothvps.com 1 8205610 2011-08-17 06:47:22
1867648 smoothdeals.com 2 24187993 2011-08-17 06:47:30
1867649 smoothill.com 2 3604212 2011-08-17 06:47:30
1867650 smolec.com 1 No Rank 2011-09-11 23:42:57
1867651 smotc.org 3 No Rank 2011-08-17 06:47:33
1867652 smow.com 5 220105 2011-08-17 06:47:36
1867653 smooal-7oob.com 1 45934 2011-08-17 06:47:36
1867654 smokymountainsguide.net 2 No Rank 2011-08-17 06:47:43
1867655 sms-text-message.softplatz.net 0 28005 2011-08-17 06:47:47
1867656 sms-tackle.co.uk 1 No Rank 2011-08-17 06:47:47
1867657 smoothon.com 5 No Rank 2011-08-17 06:47:48
1867658 smps.org 5 1316852 2011-08-17 06:47:48
1867659 ex.org 6 1501301 2011-08-17 06:47:49
1867660 smrmc.com 3 No Rank 2011-08-17 06:47:51
1867661 smrid.ab.ca 3 No Rank 2011-08-17 06:47:51
1867662 visitear.com 3 No Rank 2011-08-17 06:47:54
1867663 sms-ist.net 2 12404192 2011-08-17 06:48:02
1867664 smru.org 5 No Rank 2011-09-12 13:06:37
1867665 sms.21cn.com 0 1072 2011-08-17 06:48:08
1867666 smoothcorp.com 0 No Rank 2011-09-19 09:53:52
1867667 sms-box.de 2 723376 2011-08-17 06:48:11
1867668 sms-liveticker.com 1 No Rank 2011-08-17 06:48:12
1867669 sms-future.com 2 No Rank 2011-08-17 06:48:13
1867670 smrpc.org 5 16065816 2011-08-17 06:48:13
1867671 smrw.org 3 No Rank 2011-08-17 06:48:18
1867672 smpdd.com 5 12104101 2011-08-17 06:48:20
1867673 sms-pazintys.lt 0 No Rank 2011-08-17 06:48:20
1867674 smp.eu 0 No Rank 2011-08-17 06:48:20
1867675 sms.atlas.cz 6 232297 2011-08-17 06:48:22
1867676 pomodoro-rosso.nl 0 No Rank 2011-08-17 06:48:24
1867677 elthoncompositor.net 0 No Rank 2011-09-11 23:36:15
1867678 smsi.org 3 11192217 2011-08-17 06:48:29
1867679 sms99.de 3 9354795 2011-08-17 06:48:30
1867680 smsdienst.eu 0 No Rank 2011-08-17 06:48:30
1867681 smsh.ch 5 25256558 2011-08-17 06:48:31
1867682 smsbrana.cz 5 218881 2011-08-17 06:48:31
1867683 sms-stadt.com 0 No Rank 2011-09-12 16:44:10
1867684 smsd.info 3 No Rank 2011-08-17 06:48:39
1867685 sms30.com 3 24286218 2011-08-17 06:48:40
1867686 smsdate.de 0 14120587 2011-08-17 06:48:40
1867687 smsdealer.de 0 23322610 2011-08-17 06:48:40
1867688 sms.search.ch 6 5398 2011-08-17 06:48:40
1867689 smsform.de 1 1305480 2011-08-17 06:48:40
1867690 olx.ro 5 30978 2011-08-17 06:48:41
1867691 sms.focus.cn 0 727 2011-09-09 20:46:44
1867692 smsforum.net 5 1762990 2011-08-17 06:48:45
1867693 sms3.de 2 2189279 2011-08-17 06:48:48
1867694 sms.idea.pl 6 418754 2011-08-17 06:48:54
1867695 smsbox.fr 4 8886788 2011-08-17 06:48:54
1867696 smsbomb.tk 1 No Rank 2011-08-17 06:49:00
1867697 photocopyingtips.blogspot.com 0 2809228 2011-08-17 06:49:00
1867698 sms4impress.com 0 No Rank 2011-08-17 06:49:02
1867699 smslocos.com 2 3682671 2011-08-17 06:49:04
1867700 smso.org 5 23352698 2011-08-17 06:49:11
1867701 smtj.republika.pl 0 7654 2011-08-17 06:49:15
1867702 smtzone.com 2 27971310 2011-08-17 06:49:17
1867703 aymcargaltda.com 0 No Rank 2011-08-17 06:49:17
1867704 smsq.co.uk 2 No Rank 2011-08-17 06:49:20
1867705 smsom.com 0 No Rank 2011-08-17 06:49:21
1867706 smsplus.blogspot.com 5 3797306 2011-08-17 06:49:22
1867707 smsmovies.net 0 8136764 2011-09-12 20:13:53
1867708 berylpop.com 1 No Rank 2011-08-17 06:49:26
1867709 smsrun.ru 1 No Rank 2011-08-17 06:49:30
1867710 smtuc.pt 5 594042 2011-09-12 03:14:50
1867711 smu.org.uy 6 1283292 2011-08-17 06:49:40
1867712 smusic.com 4 26959863 2011-08-17 06:49:41
1867713 w-matbaa.ws 0 No Rank 2011-08-17 06:49:41
1867714 best-sw.com 0 26702776 2011-09-09 21:59:53
1867715 random-abstract.com 4 3717039 2011-08-17 06:49:45
1867716 smudt.de 1 No Rank 2011-08-17 06:49:47
1867717 ilgam.porno-czech.cz 0 No Rank 2011-08-17 06:49:54
1867718 smustard.com 5 604833 2011-08-17 06:49:55
1867719 smutfotos.com 0 29382267 2011-08-17 06:50:02
1867720 smuri.com 0 No Rank 2011-08-17 06:50:03
1867721 smus.ca 4 2251589 2011-08-17 06:50:04
1867722 smsodyssey-a01.com 0 94806 2011-09-19 19:42:12
1867723 smyal.org 5 7612055 2011-08-17 06:50:09
1867724 smythstoys.com 4 119349 2011-08-17 06:50:13
1867725 nwk8.cn 2 No Rank 2011-08-17 06:50:15
1867726 smvca.org 3 10353897 2011-09-11 16:09:21
1867727 smygis.com 3 6999598 2011-08-17 06:50:22
1867728 smykker.cc 2 15830791 2011-08-17 06:50:28
1867729 dana.ir 3 4860685 2011-08-17 06:50:30
1867730 smutze.com 0 23669066 2011-08-17 06:50:30
1867731 fastpianolessonsblog.com 0 No Rank 2011-08-17 06:50:32
1867732 t100.ro 0 17256122 2011-08-17 06:50:33
1867733 clsj.jp 4 5802628 2011-08-17 06:50:37
1867734 smuc.ac.uk 6 327650 2011-09-11 19:44:49
1867735 epuc.cl 5 2431362 2011-08-17 06:51:03
1867736 bestmoviegalls.com 0 No Rank 2011-08-17 06:51:14
1867737 sn15.org 3 No Rank 2011-08-17 06:51:18
1867738 snabbsms.com 2 2064532 2011-09-19 18:28:34
1867739 snackmate.com 2 16573175 2011-08-17 06:51:26
1867740 9xz.net 4 1283500 2011-08-17 06:51:26
1867741 nyna.sk 3 No Rank 2011-09-12 03:57:01
1867742 feuc.cl 5 1058840 2011-08-17 06:51:34
1867743 sed.com 3 2454081 2011-08-17 06:51:34
1867744 snaga-prirode.com 4 14993290 2011-08-17 06:51:34
1867745 snai.it 6 39543 2011-09-11 23:33:26
1867746 snajper.net 4 78155 2011-08-17 06:51:44
1867747 tbj.org 4 6709300 2011-08-17 06:51:44
1867748 snakeriverjerky.com 2 No Rank 2011-08-17 06:51:45
1867749 snake-pit.de 0 No Rank 2011-08-17 06:51:45
1867750 snakes.nl 4 No Rank 2011-08-17 06:51:46
1867751 snakes4.com 3 400742 2011-08-17 06:51:47
1867752 snanc.org 4 No Rank 2011-08-17 06:51:48
1867753 snap4kids.org 3 11014005 2011-08-17 06:51:55
1867754 dogtownshelter.com 0 No Rank 2011-09-12 14:07:34
1867755 snaps.snapsoid.com 0 14409631 2011-08-17 06:52:03
1867756 snark.eu 1 No Rank 2011-08-17 06:52:13
1867757 snapgalaxy.com 4 232082 2011-08-17 06:52:14
1867758 snark.de 4 15032282 2011-08-17 06:52:14
1867759 snarkish.com 3 5092263 2011-08-17 06:52:17
1867760 levsoft.fr 0 No Rank 2011-08-17 06:52:18
1867761 snaptax.com 5 No Rank 2011-08-17 06:52:18
1867762 snand.com 1 17060083 2011-08-17 06:52:21
1867763 snapsen.subs.dk 0 13545550 2011-09-12 21:02:13
1867764 sncc.com 4 No Rank 2011-08-17 06:52:22
1867765 snapshield.com 0 No Rank 2011-09-12 15:50:38
1867766 31tv.ru 4 2379537 2011-08-17 06:52:28
1867767 eire.dk 4 9488084 2011-08-17 06:52:32
1867768 snchia.com 2 No Rank 2011-08-17 06:52:33
1867769 sncweb.ch 5 3407947 2011-08-17 06:52:34
1867770 sndden.org 4 8207242 2011-08-17 06:52:38
1867771 snclavalin.com 6 151815 2011-09-18 11:47:27
1867772 sncsncsnc.com 1 4665853 2011-08-17 06:52:43
1867773 sndky.org 3 No Rank 2011-08-17 06:52:43
1867774 sneada.org 2 No Rank 2011-08-17 06:52:45
1867775 snco.com 4 5742707 2011-08-17 06:52:45
1867776 sndhr.com 5 271243 2011-08-17 06:52:48
1867777 bgway.com 0 11135880 2011-08-17 06:52:50
1867778 sne.es 6 4589280 2011-08-17 06:52:51
1867779 snec-securite.com 1 21087499 2011-08-17 06:52:55
1867780 sneakthru.info 0 No Rank 2011-08-17 06:53:01
1867781 sneaky9.com 1 3538055 2011-08-17 06:53:02
1867782 xmpuquan.com 1 13523016 2011-08-17 06:53:08
1867783 snella.org 2 No Rank 2011-08-17 06:53:08
1867784 snes.tv 0 No Rank 2011-08-17 06:53:11
1867785 snezne.cz 4 13044873 2011-08-17 06:53:12
1867786 snellingen.no 3 5047676 2011-08-17 06:53:17
1867787 avtv.ru 1 1233274 2011-08-17 06:53:17
1867788 snejkom.ru 0 12658620 2011-08-17 06:53:19
1867789 snic.nl 4 No Rank 2011-08-17 06:53:20
1867790 snhreit.com 4 3707245 2011-08-17 06:53:21
1867791 a-tv.ru 3 1858278 2011-08-17 06:53:23
1867792 snikers.pl 3 1048854 2011-08-17 06:53:23
1867793 xd2.net 2 9795116 2011-08-17 06:53:32
1867794 snipershop.hypermart.net 0 14561 2011-08-17 06:53:36
1867795 snipeus.org 3 3866114 2011-08-17 06:53:36
1867796 sniperspy-avg.qarchive.org 0 7613 2011-08-17 06:53:37
1867797 snimu-prostitutku-v-ryazani.100webspace.net 0 153843 2011-09-12 13:15:44
1867798 cxg.org 5 6994992 2011-08-17 06:53:41
1867799 snipers.net 4 545530 2011-08-17 06:53:44
1867800 snitchster.com 2 No Rank 2011-08-17 06:53:55
1867801 sniw.fr 3 2095438 2011-08-17 06:53:57
1867802 snkkoi.com 3 No Rank 2011-08-17 06:53:58
1867803 snoa.com 4 8040406 2011-08-17 06:54:01
1867804 snkc.co.jp 4 8673291 2011-08-17 06:54:01
1867805 snlogic.com 2 6183800 2011-08-17 06:54:02
1867806 news.disipromosyon.com.tr 0 13077307 2011-09-19 12:37:51
1867807 avf.org 5 8009392 2011-08-17 06:54:08
1867808 snofoam.com 4 No Rank 2011-09-10 19:46:02
1867809 snookerbilliardspool.co.uk 3 2369183 2011-08-17 06:54:15
1867810 snkids.com 0 No Rank 2011-09-18 04:32:13
1867811 snorad.com 3 No Rank 2011-08-17 06:54:22
1867812 snorkelmaui.net 4 No Rank 2011-08-17 06:54:24
1867813 snoras.com 6 79454 2011-08-17 06:54:25
1867814 snookerstuff.com 1 5546371 2011-08-17 06:54:26
1867815 urls.ro 3 977662 2011-08-17 06:54:27
1867816 snowbizz.com.au 3 24324083 2011-08-17 06:54:30
1867817 snowb.it 0 No Rank 2011-08-17 06:54:37
1867818 bingol.gov.tr 5 5342973 2011-08-17 06:54:40
1867819 snowak.com 2 No Rank 2011-08-17 06:54:40
1867820 hcdc.com 5 2730022 2011-08-17 06:54:42
1867821 snowboard.colonies.com 3 4239462 2011-08-17 06:54:45
1867822 shuj.cn 2 5774297 2011-09-12 18:38:04
1867823 snow.yahoo.com 6 4 2011-08-17 06:54:53
1867824 nccf.org 7 16391682 2011-08-17 06:54:53
1867825 snowflakeinn.com 0 No Rank 2011-08-17 06:54:53
1867826 snowboarding2.com 4 1984958 2011-08-17 06:54:54
1867827 snowell.com 4 2182090 2011-08-17 06:54:58
1867828 snowcentre.co.nz 4 3462216 2011-08-17 06:55:09
1867829 snowskiclub.com 4 8128052 2011-08-17 06:55:10
1867830 snowmobiling.com 0 1361240 2011-08-17 06:55:11
1867831 1128.org 6 420425 2011-08-17 06:55:15
1867832 xuhu.org 0 5237907 2011-09-19 19:00:27
1867833 snowtrails.com 4 6205347 2011-08-17 06:55:20
1867834 snowparknz.com 6 1347720 2011-08-17 06:55:20
1867835 wud2.com 0 No Rank 2011-08-17 06:55:20
1867836 bizmatch.ca 0 832466 2011-08-17 06:55:20
1867837 snowmassclub.com 4 3413931 2011-08-17 06:55:21
1867838 snowmanplows.com 3 10869858 2011-08-17 06:55:24
1867839 snowpeas.us 0 No Rank 2011-08-17 06:55:27
1867840 snowshore.com 0 No Rank 2011-08-17 06:55:29
1867841 snpi.com 5 486397 2011-08-17 06:55:32
1867842 snoxd.com 0 No Rank 2011-08-17 06:55:36
1867843 ozel.org 3 3779506 2011-08-17 06:55:36
1867844 snpbooks.org 5 12569414 2011-08-17 06:55:36
1867845 snpa.org 5 2206491 2011-08-17 06:55:41
1867846 snpj.com 4 86071 2011-08-17 06:55:41
1867847 wlkm.com 3 9810494 2011-08-17 06:55:42
1867848 sheyn.de 0 10535442 2011-08-17 06:55:43
1867849 meirong521.com 2 8017745 2011-08-17 06:55:45
1867850 snowystar.pl 0 No Rank 2011-08-17 06:55:46
1867851 cavu.com 5 10369305 2011-08-17 06:55:49
1867852 llrx.com 7 254715 2011-08-17 06:55:50
1867853 snsnavi.jp 0 No Rank 2011-08-17 06:55:52
1867854 rugusainfo.com 0 6261302 2011-08-17 06:55:52
1867855 snukos.eu 0 21740218 2011-08-17 06:55:56
1867856 snuf.com 0 No Rank 2011-08-17 06:55:57
1867857 thisisshoes.blogspot.com 0 No Rank 2011-08-17 06:56:01
1867858 snuffelcorner.nl 3 1196274 2011-08-17 06:56:02
1867859 snuffelsnel.nl 4 No Rank 2011-08-17 06:56:05
1867860 snsprcs.org.uk 3 No Rank 2011-08-17 06:56:06
1867861 snuff.ru 0 No Rank 2011-08-17 06:56:07
1867862 ljmj.com 0 No Rank 2011-08-17 06:56:07
1867863 snyder.com 1 No Rank 2011-08-17 06:56:08
1867864 snyat-prostitutku-moskve.100webspace.net 0 153843 2011-09-19 19:05:39
1867865 snyat-shlyuhu-v-aktobe.freehostia.com 0 7213 2011-09-12 13:25:10
1867866 snyat-prostitutku-v.freehostia.com 0 7213 2011-09-10 11:45:30
1867867 snutz.us 0 351901 2011-09-12 17:09:17
1867868 navx.com 5 237913 2011-08-17 06:56:17
1867869 snuph.com 5 8488153 2011-08-17 06:56:20
1867870 snut.edu.cn 6 616209 2011-09-12 21:49:15
1867871 snzsw.com 2 No Rank 2011-08-17 06:56:28
1867872 so-much.com 0 No Rank 2011-08-17 06:56:33
1867873 so-cool-4u.com 0 No Rank 2011-08-17 06:56:34
1867874 mrvc.coinmeltvalue.info 0 No Rank 2011-08-17 06:56:34
1867875 cargameshq.info 0 No Rank 2011-08-17 06:56:35
1867876 snydz.com 0 No Rank 2011-08-17 06:56:35
1867877 snz-k.com 4 5238961 2011-08-17 06:56:38
1867878 women.coinmeltvalue.info 0 No Rank 2011-08-17 06:56:43
1867879 so-use.com 5 No Rank 2011-08-17 06:56:44
1867880 soap-catseye.com 1 2421353 2011-08-17 06:56:45
1867881 soadhosny.com 0 16251775 2011-08-17 06:56:47
1867882 soa.nl 5 5774856 2011-08-17 06:56:48
1867883 soakedspot.com 0 1617100 2011-08-17 06:56:49
1867884 soakingwetpussy.sexusblog.com 0 23686 2011-08-17 06:56:50
1867885 snsing.com 3 1647776 2011-09-12 21:37:33
1867886 soapandherbs.com 0 No Rank 2011-08-17 06:56:52
1867887 soanhs.namoa.net 0 152015 2011-08-17 06:56:53
1867888 soa.edu 3 No Rank 2011-09-15 09:18:48
1867889 shogi.fr 4 No Rank 2011-09-19 00:19:15
1867890 soapbox.de 3 No Rank 2011-08-17 06:57:00
1867891 soakaways.com 1 14023607 2011-08-17 06:57:04
1867892 soap.co.nz 3 18123237 2011-08-17 06:57:06
1867893 soapdigest.com 6 99515 2011-09-12 16:31:32
1867894 fwaf.com 3 No Rank 2011-08-17 06:57:11
1867895 simplyweight.com 0 19019800 2011-08-17 06:57:15
1867896 soarmn.com 3 No Rank 2011-09-12 15:49:46
1867897 jasko.ru 3 3101714 2011-08-17 06:57:16
1867898 soaringoaks.com 2 No Rank 2011-08-17 06:57:16
1867899 ruya.net 0 29812853 2011-08-17 06:57:18
1867900 soarcsa.org 3 14503335 2011-08-17 06:57:24
1867901 soaringsoftware.com 3 No Rank 2011-08-17 06:57:24
1867902 soapqueens.com 0 No Rank 2011-08-17 06:57:25
1867903 blog.nectargirl.com 0 2630716 2011-08-17 06:57:25
1867904 sobhaneh.org 0 No Rank 2011-08-17 06:57:29
1867905 boxsterforum.com 0 14110060 2011-09-19 18:23:00
1867906 shogi.de 4 7047380 2011-08-17 06:57:34
1867907 soasta.com 5 381700 2011-08-17 06:57:42
1867908 sobreviviralcodigo.blogspot.com 2 No Rank 2011-08-17 06:57:45
1867909 sobem.org 4 7221284 2011-08-17 06:57:45
1867910 sobe-it.be 3 No Rank 2011-09-16 23:37:58
1867911 bbzc.com 2 1842199 2011-08-17 06:57:50
1867912 soboa.org 4 No Rank 2011-08-17 06:57:50
1867913 sobelair.be 5 No Rank 2011-08-17 06:57:52
1867914 sobotka.pl 4 890375 2011-08-17 06:57:53
1867915 socaen.org 3 No Rank 2011-08-17 06:57:54
1867916 socaltaiko.org 2 No Rank 2011-08-17 06:58:02
1867917 soccer-stats.com 0 10036003 2011-09-14 11:34:33
1867918 socalsportsmedicine.com 1 No Rank 2011-08-17 06:58:15
1867919 socalrelationships.com 0 23669209 2011-09-10 23:46:33
1867920 blog2.rapichat.com 0 64287 2011-08-17 06:58:18
1867921 socalsacc.com 2 16041836 2011-08-17 06:58:19
1867922 socalmls.webex.com 0 1543 2011-09-19 17:37:06
1867923 socav.com 3 21223498 2011-08-17 06:58:22
1867924 soccer-links.com 0 1582304 2011-09-13 19:03:34
1867925 socalcandy.com 0 20746034 2011-08-17 06:58:27
1867926 socallimos.com 0 No Rank 2011-08-17 06:58:31
1867927 socalmarks.com 0 No Rank 2011-08-17 06:58:34
1867928 socaldiscgolf.org 2 7737105 2011-08-17 06:58:36
1867929 soccer-cafe.com 2 9479883 2011-08-17 06:58:36
1867930 socalgals.com 3 No Rank 2011-08-17 06:58:38
1867931 soccer-shirts.info 0 No Rank 2011-08-17 06:58:38
1867932 stardoll.faire-des-economies.recherche-d-emploi.net 0 No Rank 2011-08-17 06:58:38
1867933 soccergamenight.com 5 No Rank 2011-08-17 06:58:45
1867934 soccered.com 0 No Rank 2011-09-16 12:40:36
1867935 soccerways.com 4 1412080 2011-08-17 06:58:46
1867936 soccercouch.com 2 No Rank 2011-08-17 06:58:47
1867937 soccerstreaming.co.uk 4 No Rank 2011-08-17 06:58:48
1867938 soccers.cn 1 12067317 2011-08-17 06:58:50
1867939 soccerupdate.com 3 22462400 2011-08-17 06:58:51
1867940 soccerlist.hypermart.net 0 14561 2011-08-17 06:58:53
1867941 shunk.ru 2 675289 2011-08-17 06:58:58
1867942 soccerglobe.net 2 13261105 2011-08-17 06:58:59
1867943 homepager.tripod.foren-newhorizon.at.st 0 1334199 2011-08-17 06:59:03
1867944 hemorrhoidtreatmentmanual.com 0 No Rank 2011-08-17 06:59:03
1867945 soccer88.com 2 No Rank 2011-08-17 06:59:04
1867946 brooklandsmuseum.com 5 1241675 2011-08-17 06:59:07
1867947 sochi.cn 1 No Rank 2011-08-17 06:59:12
1867948 social-anxiety-network.com 5 5087445 2011-08-17 06:59:13
1867949 sochi-zima.ru 0 No Rank 2011-08-17 06:59:14
1867950 socialentrepreneur.biz 0 No Rank 2011-08-17 06:59:16
1867951 socialdemokraterne.dk 5 1244305 2011-08-17 06:59:19
1867952 socialhistory.org.uk 5 8427369 2011-08-17 06:59:20
1867953 jimmi-jimm.ru 3 3137436 2011-08-17 06:59:20
1867954 socialdanger.com 1 253116 2011-08-17 06:59:22
1867955 social.nefunda.com 0 17052530 2011-08-17 06:59:23
1867956 sochem.com 3 No Rank 2011-08-17 06:59:25
1867957 socialcashformula.com 0 19705513 2011-09-12 12:51:26
1867958 socecol.cl 5 10847349 2011-08-17 06:59:27
1867959 soccerwinners.com 4 882230 2011-08-17 06:59:30
1867960 socengine.com 7 5915177 2011-08-17 06:59:31
1867961 lexp.net 0 4945092 2011-08-17 06:59:36
1867962 soche.org 5 23136366 2011-08-17 06:59:37
1867963 sjhcx.com 1 633181 2011-08-17 06:59:40
1867964 social.at 4 No Rank 2011-08-17 06:59:40
1867965 shyan.in 2 21486274 2011-08-17 06:59:44
1867966 socco.org 1 23415104 2011-08-17 06:59:46
1867967 socialjump.com 1 25576261 2011-08-17 06:59:47
1867968 neotv.tv 0 No Rank 2011-09-19 17:10:36
1867969 bupl-storstroem.dk 0 No Rank 2011-09-10 05:17:59
1867970 rich6.rcboe.us 0 18629586 2011-08-17 07:00:15
1867971 now4.com 0 3881264 2011-08-17 07:00:20
1867972 old.med.faire-des-economies.recherche-d-emploi.net 0 No Rank 2011-08-17 07:00:23
1867973 wlkr.net 2 No Rank 2011-08-17 07:00:25
1867974 tongkatnikmatmadura.com 0 No Rank 2011-08-17 07:00:40
1867975 movies4share.blogspot.com 0 29021033 2011-08-17 07:00:56
1867976 eipat.com 1 No Rank 2011-08-17 07:01:02
1867977 scige.com 2 7974537 2011-09-19 20:16:42
1867978 semxp.com 3 474200 2011-08-17 07:01:20
1867979 simmd.com 1 16184447 2011-08-17 07:01:30
1867980 rapsel.de 2 No Rank 2011-08-17 07:01:40
1867981 edutt.org 4 6999205 2011-08-17 07:01:49
1867982 9-ten.com 3 3500149 2011-08-17 07:01:55
1867983 ccbnational.net 5 27093925 2011-08-17 07:01:58
1867984 shujia.jp 2 No Rank 2011-08-17 07:02:02
1867985 shmmr.net 3 161953 2011-08-17 07:02:03
1867986 wakht.com 5 820309 2011-08-17 07:02:04
1867987 ixite.com 2 No Rank 2011-08-17 07:02:27
1867988 charlielab.com 0 No Rank 2011-08-17 07:02:51
1867989 aaajc.com 3 No Rank 2011-08-17 07:03:01
1867990 alifechangingword.com 0 No Rank 2011-08-17 07:03:03
1867991 showpark.info 3 687585 2011-08-17 07:03:04
1867992 totse.com 0 2639822 2011-09-18 10:49:09
1867993 eixei.com 3 No Rank 2011-08-17 07:03:12
1867994 ehowpro.com 0 No Rank 2011-08-17 07:03:21
1867995 coretanlo.blogspot.com 0 10009600 2011-08-17 07:03:27
1867996 scied.com 3 14626880 2011-08-17 07:03:44
1867997 smvhs.org 4 10980781 2011-08-17 07:03:47
1867998 hamor.com 1 No Rank 2011-08-17 07:03:50
1867999 rozebif.free.fr 0 203 2011-08-17 07:04:01